This is the latest recevied weather packets stored in our database for station/object XE2RCS-1. If no packets are shown the sender has not sent any weather packets the latest 10 day(s).
| Time | Temp. | Humidity | Pressure | Rain* | Wind** | Luminosity | Snow |
|---|---|---|---|---|---|---|---|
| 1787978363 | 20.56° C | 65% | 1020 hPa | 0 mm | - | - | - |
| 1787977762 | 20.56° C | 64% | 1022 hPa | 0 mm | - | - | - |
| 1787977161 | 20.56° C | 64% | 1022 hPa | 0 mm | - | - | - |
| 1787976561 | 21.11° C | 64% | 1022 hPa | 0 mm | - | - | - |
| 1787975960 | 21.11° C | 63% | 1020 hPa | 0 mm | - | - | - |
| 1787975359 | 21.11° C | 62% | 1020 hPa | 0 mm | - | - | - |
| 1787974759 | 21.11° C | 61% | 1020 hPa | 0 mm | - | - | - |
| 1787974158 | 21.11° C | 61% | 1021 hPa | 0 mm | - | - | - |
| 1787973558 | 21.11° C | 61% | 1021 hPa | 0 mm | - | - | - |
| 1787972957 | 21.11° C | 63% | 1021 hPa | 0 mm | - | - | - |
| 1787972356 | 21.67° C | 63% | 1019 hPa | 0 mm | - | - | - |
| 1787971756 | 21.67° C | 64% | 1019 hPa | 0 mm | - | - | - |
| 1787971155 | 21.67° C | 64% | 1019 hPa | 0 mm | - | - | - |
| 1787970555 | 21.67° C | 64% | 1021 hPa | 0 mm | - | - | - |
| 1787969954 | 21.67° C | 65% | 1021 hPa | 0 mm | - | - | - |
| 1787969354 | 21.67° C | 65% | 1021 hPa | 0 mm | - | - | - |
| 1787968753 | 21.67° C | 64% | 1018 hPa | 0 mm | - | - | - |
| 1787968152 | 21.67° C | 64% | 1018 hPa | 0 mm | - | - | - |
| 1787967552 | 22.22° C | 76% | 1018 hPa | 0 mm | - | - | - |
| 1787966951 | 22.22° C | 75% | 1020 hPa | 0 mm | - | - | - |
| 1787966351 | 22.22° C | 74% | 1020 hPa | 0 mm | - | - | - |
| 1787965750 | 22.22° C | 71% | 1019 hPa | 0 mm | - | - | - |
| 1787965149 | 22.22° C | 62% | 1017 hPa | 0 mm | - | - | - |
| 1787964549 | 22.78° C | 75% | 1018 hPa | 0 mm | - | - | - |
| 1787963948 | 21.67° C | 78% | 1018 hPa | 0 mm | - | - | - |
* Rain latest hour (hover to see other rain measurements)
** Current wind speed in m/s (hover to see current wind gust speed)